This demonstration page uses our WeatherBlox Daily Observations layout. Learn more.

Left ArrowRight Arrow

Hourly Observations for June 17, 2017

Temp ( °F °C ) Dew Point ( °F °C ) Humidity (%) Winds ( mph kmh ) Pressure ( in mb ) Visibility ( mi km ) Precip ( " mm )
12:15 am 00:15 Clear 69 20.5 60 15.6 74 74 NNE 7 11 29.59 1002 10 16.0934 0 0
12:35 am 00:35 Clear 68 20 60 15.7 76 76 NNE 7 11 29.62 1003 10 16.0934 0 0
12:55 am 00:55 Clear 66 19 60 15.8 82 82 N 6 9 29.62 1003 10 16.0934 0 0
1:15 am 01:15 Clear 66 18.7 61 16.1 85 85 N 7 11 29.62 1003 10 16.0934 0 0
1:35 am 01:35 Clear 66 19 62 16.5 86 86 NNE 7 11 29.62 1003 10 16.0934 0 0
1:55 am 01:55 Clear 66 19 62 16.7 87 87 N 3 6 29.65 1004 10 16.0934 0 0
2:15 am 02:15 Clear 64 18 61 16.2 89 89 N 6 9 29.62 1003 10 16.0934 0 0
2:35 am 02:35 Clear 64 18 62 16.5 91 91 N 6 9 29.62 1003 10 16.0934 0 0
2:55 am 02:55 Clear 64 17.9 62 16.5 92 92 N 8 13 29.62 1003 10 16.0934 0 0
3:15 am 03:15 Clear 64 18 61 16 88 88 N 7 11 29.65 1004 10 16.0934 0 0
3:35 am 03:35 Clear 64 17.5 60 15.8 90 90 N 6 9 29.65 1004 10 16.0934 0 0
3:55 am 03:55 Clear 63 17.2 60 15.6 90 90 N 7 11 29.62 1003 10 16.0934 0 0
4:15 am 04:15 Clear 63 17 60 15.6 92 92 N 10 17 29.62 1003 10 16.0934 0 0
4:35 am 04:35 Clear 63 17 60 15.8 93 93 N 9 15 29.62 1003 10 16.0934 0 0
4:55 am 04:55 Clear 62 16.9 60 15.5 92 92 N 7 11 29.62 1003 10 16.0934 0 0
5:15 am 05:15 Clear 62 16.7 59 15.2 91 91 N 6 9 29.62 1003 10 16.0934 0 0
5:35 am 05:35 Clear 62 16.5 59 15 91 91 NNW 8 13 29.68 1005 10 16.0934 0 0
5:55 am 05:55 Clear 62 16.5 59 15 91 91 NNW 8 13 29.68 1005 10 16.0934 0 0
6:15 am 06:15 Sunny 61 15.9 58 14.5 91 91 N 7 11 29.68 1005 10 16.0934 0 0
6:35 am 06:35 Sunny 60 15.7 58 14.3 91 91 NNW 6 9 29.68 1005 10 16.0934 0 0
6:55 am 06:55 Sunny 61 16 58 14.5 91 91 N 6 9 29.68 1005 10 16.0934 0 0
7:15 am 07:15 Sunny 62 16.6 59 14.9 90 90 NNW 6 9 29.68 1005 10 16.0934 0 0
7:35 am 07:35 Sunny 64 17.5 59 15.2 86 86 N 7 11 29.65 1004 10 16.0934 0 0
7:55 am 07:55 Sunny 65 18.1 60 15.8 87 87 NNE 10 17 29.68 1005 10 16.0934 0 0
8:15 am 08:15 Sunny 66 19 61 15.9 82 82 NNE 12 19 29.68 1005 10 16.0934 0 0
8:35 am 08:35 Sunny 68 20 61 16 78 78 NNE 10 17 29.68 1005 10 16.0934 0 0
8:55 am 08:55 Sunny 70 20.9 61 16.3 75 75 NE 13 20 29.65 1004 10 16.0934 0 0
9:15 am 09:15 Sunny 71 21.4 61 16.3 73 73 NNE 14 22 29.68 1005 10 16.0934 0 0
9:35 am 09:35 Sunny 72 22.2 61 16 68 68 NNE 14 22 29.68 1005 10 16.0934 0 0
9:55 am 09:55 Sunny 73 22.8 61 16 66 66 NNE 10 17 29.65 1004 10 16.0934 0 0
10:15 am 10:15 Sunny 73 22.7 60 15.7 65 65 NE 10 17 29.65 1004 10 16.0934 0 0
10:35 am 10:35 Sunny 75 24.1 61 16 61 61 NNE 13 20 29.65 1004 10 16.0934 0 0
10:55 am 10:55 Sunny 76 24.2 60 15.5 58 58 NNE 13 20 29.68 1005 10 16.0934 0 0
11:15 am 11:15 Sunny 77 24.8 60 15.8 57 57 NNE 12 19 29.65 1004 10 16.0934 0 0
11:35 am 11:35 Sunny 77 25.1 60 15.8 56 56 NNE 12 19 29.65 1004 10 16.0934 0 0
11:55 am 11:55 Sunny 79 26 61 16.2 55 55 NNE 12 19 29.65 1004 10 16.0934 0 0
12:15 pm 12:15 Sunny 80 26.8 60 15.3 49 49 NNE 14 22 29.65 1004 10 16.0934 0 0
12:35 pm 12:35 Sunny 81 27.2 59 14.8 47 47 NNE 15 24 29.65 1004 10 16.0934 0 0
12:55 pm 12:55 Sunny 81 27.4 58 14.7 46 46 NE 9 15 29.62 1003 10 16.0934 0 0
1:15 pm 13:15 Sunny 82 27.5 59 15.2 47 47 E 8 13 29.62 1003 10 16.0934 0 0
1:35 pm 13:35 Sunny 83 28.1 60 15.4 46 46 ENE 9 15 29.59 1002 10 16.0934 0 0
1:55 pm 13:55 Sunny 82 27.9 58 14.7 44 44 ENE 9 15 29.56 1001 10 16.0934 0 0
2:15 pm 14:15 Sunny 82 27.8 58 14.2 43 43 NE 10 17 29.62 1003 10 16.0934 0 0
2:35 pm 14:35 Sunny 83 28.4 57 13.8 41 41 NNE 7 11 29.59 1002 10 16.0934 0 0
2:55 pm 14:55 Sunny 83 28.4 60 15.5 45 45 NNE 12 19 29.59 1002 10 16.0934 0 0
3:15 pm 15:15 Sunny 82 27.9 61 16 48 48 N 12 19 29.62 1003 10 16.0934 0 0
3:35 pm 15:35 Sunny 81 27.3 60 15.4 48 48 NNE 13 20 29.62 1003 10 16.0934 0 0
3:55 pm 15:55 Sunny 79 26 59 14.9 50 50 N 13 20 29.65 1004 10 16.0934 0 0
4:15 pm 16:15 Sunny 77 25 59 14.8 53 53 N 13 20 29.65 1004 10 16.0934 0 0
4:35 pm 16:35 Sunny 76 24.5 58 14.5 54 54 N 15 24 29.68 1005 10 16.0934 0 0
4:55 pm 16:55 Sunny 76 24.7 57 13.8 51 51 NNE 12 19 29.65 1004 10 16.0934 0 0
5:15 pm 17:15 Sunny 77 24.9 57 14.1 51 51 N 18 30 29.65 1004 10 16.0934 0 0
5:35 pm 17:35 Sunny 75 24 57 14 54 54 NNE 18 30 29.68 1005 10 16.0934 0 0
5:55 pm 17:55 Sunny 74 23.5 58 14.2 56 56 N 17 28 29.71 1006 10 16.0934 0 0
6:15 pm 18:15 Sunny with Light Rain 72 22.3 56 13.6 58 58 N 14 22 29.71 1006 10 16.0934 0 0
6:35 pm 18:35 Mostly Cloudy with Light Rain 71 21.5 57 14.1 63 63 N 15 24 29.77 1008 10 16.0934 0 0
6:55 pm 18:55 Partly Cloudy 70 21.1 57 14 64 64 N 15 24 29.77 1008 10 16.0934 0 0
7:15 pm 19:15 Mostly Cloudy with Light Rain 69 20.4 59 14.8 70 70 N 9 15 29.77 1008 10 16.0934 0 0
7:35 pm 19:35 Sunny 69 20.5 58 14.6 69 69 NNE 12 19 29.77 1008 10 16.0934 0 0
7:55 pm 19:55 Partly Cloudy 69 20.5 58 14.3 68 68 NNE 10 17 29.77 1008 10 16.0934 0 0
8:15 pm 20:15 Partly Cloudy with Light Rain 68 20.1 58 14.2 69 69 NNE 9 15 29.8 1009 10 16.0934 0 0
8:35 pm 20:35 Partly Cloudy 67 19.5 58 14.3 72 72 NNE 8 13 29.8 1009 10 16.0934 0 0
8:55 pm 20:55 Sunny 67 19.5 58 14.3 72 72 NNE 5 7 29.8 1009 10 16.0934 0 0
9:15 pm 21:15 Partly Cloudy 66 19.1 58 14.6 75 75 Calm 29.8 1009 10 16.0934 0 0
9:35 pm 21:35 Partly Cloudy 66 18.8 58 14.6 77 77 NNE 7 11 29.8 1009 10 16.0934 0 0
9:55 pm 21:55 Partly Cloudy 65 18.6 58 14.5 77 77 N 5 7 29.8 1009 10 16.0934 0 0
10:15 pm 22:15 Clear 65 18.6 58 14.7 78 78 N 7 11 29.8 1009 10 16.0934 0 0
10:35 pm 22:35 Clear 65 18.6 56 13.3 71 71 N 7 11 29.8 1009 10 16.0934 0 0
10:55 pm 22:55 Clear 64 18 55 13 73 73 N 5 7 29.85 1011 10 16.0934 0 0
11:15 pm 23:15 Partly Cloudy 64 18 55 12.8 72 72 W 5 7 29.88 1012 10 16.0934 0 0
11:35 pm 23:35 Mostly Cloudy with Light Rain 64 17.7 56 13.2 75 75 Calm 29.85 1011 10 16.0934 0 0
11:55 pm 23:55 Mostly Cloudy 63 17.2 57 14 82 82 Calm 29.85 1011 10 16.0934 0 0

Powered by AerisWeather